Location: Sevilla
(37.3933°N, 5.9839°W)
Time: 05:35:11
(UTC+02:00)

Transit 2A - Pass Details

Date: 04 July 2024
Orbit: 591 x 960 km, 66.7° (Epoch: 15 July)

Event Time Altitude Azimuth Distance (km) Brightness Sun altitude
Rises 00:43:21 0° 323° (NW) 3,612 10.8 -24.9°
Reaches altitude 10° 00:46:04 10° 315° (NW) 2,684 9.7 -25.1°
Maximum altitude 00:51:44 36° 251° (WSW) 1,484 7.4 -25.6°
Enters shadow 00:53:16 31° 223° (SW) 1,599 7.4 -25.7°
Drops below altitude 10° 00:57:21 10° 188° (S) 2,652 - -26.1°
Sets 01:00:02 0° 179° (S) 3,563 - -26.3°
